星链-3157 (STARLINK-3157 )

导读

STARLINK-3157是美国太空探索技术公司(SpaceX)研发运营的星链(Starlink)低轨卫星,于2021年11月13日发射。作为星链全球卫星互联网项目的一员,它运行在近地轨道,为全球尤其是偏远地区提供高速低延迟互联网服务,助力缩小数字鸿沟,同时也可为军事、航空等领域提供通信支持。

Basic Information
目录编号:
49413
目录名称:
STARLINK-3157
国际标识:
2021-104F
轨道中心:
EARTH
卫星名称:
星链-3157
卫星全名:
星链-3157 (STARLINK-3157 )
卫星状态:
在轨 (已飞行1677 天)
发射日期:
2021-11-13 UTC
国别 :
美国 (US)
星等 :
--
Orbit Information
数据来源 国际轨道数据 AOE轨道数据
星历时间 2026-06-17T12:51:54+0800
6小时前
查看轨道信息
2026-06-14T04:00:00+0800
3天前
查看轨道信息
半长轴 6917.909km 6917.877km
偏心率 0.0001381 0.0001428
轨道倾角 53.161° 53.159°
近地点辐角 99.654° 113.554°
升交点赤经 132.305° 147.449°
平近点角 260.461° 294.668°
近地点 538.816km 538.752km
远地点 540.728km 540.728km
周期 95.438分钟 95.437分钟
每日圈数 15.088308 15.088414
Detailed Information
固有亮度:
5
最大亮度:
2.5
卫星平台:
Starlink v1.5
覆盖范围:
全球
运营商:
太空探索技术公司
运营商所在国:
美国
制造商(研发单位):
太空探索技术公司
制造商所在国:
美国
使用方式:
暂无
Satellite Introduction
星链(Starlink)计划是由太空探索技术公司(SpaceX)提出的一个巨型低轨卫星互联网星座项目,计划在2019年至2024年间在太空搭建由约1.2万颗卫星组成的“星链”网络,其中1584颗将部署在地球上空550千米处的近地轨道,并从2020年开始工作。该卫星仍在工作。
2D Orbit Map
3D Orbit Map
Orbit Altitude Analysis Chart
Orbit Inclination Analysis Chart
Orbit Comprehensive Analysis Chart
View Comprehensive Chart